Regional Weather Roundup
Issued by NWS

Home | Current Version | Previous Version | Graphics & Text | Print | Product List | Glossary On
Versions: 1 2 3 4 5 6 7 8 9 10 11 12 13 14 15 16 17 18 19 20 21 22 23 24 25 26 27 28 29 30 31 32 33 34 35 36 37 38 39 40 41 42 43 44 45 46 47 48 49 50
000
ASUS43 KBIS 310420
RWRND

NORTH DAKOTA REGIONAL WEATHER ROUNDUP
NATIONAL WEATHER SERVICE BISMARCK ND
1100 PM CDT THU OCT 30 2014

NOTE: "FAIR" INDICATES FEW OR NO CLOUDS BELOW 12,000 FEET WITH NO
SIGNIFICANT WEATHER AND/OR OBSTRUCTIONS TO VISIBILITY.


NDZ001>003-009>011-017-310500-
NORTHWEST NORTH DAKOTA

CITY           SKY/WX    TMP DP  RH WIND       PRES   REMARKS
WILLISTON      CLOUDY    32  25  75 SE14G22   30.51S
MINOT          CLEAR     20  16  84 SW7       30.55R WCI  11
MINOT AFB      CLEAR     14  12  92 W2        30.55R
$$

NDZ018>021-031>035-040>046-310500-
SOUTHWEST NORTH DAKOTA

CITY           SKY/WX    TMP DP  RH WIND       PRES   REMARKS
BISMARCK       CLEAR     23  19  85 NE3       30.58R
DICKINSON      CLOUDY    31  26  82 E15       30.48S
GARRISON         N/A     21  19  92 CALM      30.56R
HETTINGER ARPT CLOUDY    31  27  85 E12       30.50R
$$

NDZ004>008-012>016-024-026-027-054-310500-
NORTHEAST NORTH DAKOTA

CITY           SKY/WX    TMP DP  RH WIND       PRES   REMARKS
GRAND FORKS    CLEAR     22  17  81 NW9       30.58R WCI  12
GRND FRKS AFB  CLEAR     24  17  73 N8        30.58R WCI  15
DEVILS LAKE    CLEAR     23  12  63 NE6       30.56S WCI  16
$$

NDZ022-023-025-028>030-036>039-047>053-310500-
SOUTHEAST NORTH DAKOTA

CITY           SKY/WX    TMP DP  RH WIND       PRES   REMARKS
FARGO          CLEAR     28  19  69 N14       30.54R WCI  17
$$




USA.gov is the U.S. government's official web portal to all federal, state and local government web resources and services.